Location: Kimberly
(42.5380°N, 114.3640°W)
Time: 15:41:29
(UTC-07:00)

ISS - Visible Passes

Search period start: 23 January 2019 00:00
Search period end: 02 February 2019 00:00
Orbit: 404 x 410 km, 51.6° (Epoch: 24 January)

Date Brightness Start Highest point End Pass type
(mag) Time Alt. Az. Time Alt. Az. Time Alt. Az.
23 Jan -2.4 18:19:32 10° SSW 18:22:16 24° SE 18:24:45 11° E visible
23 Jan -1.9 19:55:29 10° WSW 19:57:29 30° W 19:57:29 30° W visible
24 Jan -3.8 19:03:58 10° WSW 19:07:15 75° NNW 19:08:26 36° NE visible
25 Jan -3.6 18:12:39 10° SW 18:15:53 60° SE 18:19:09 10° ENE visible
25 Jan -1.8 19:49:47 10° W 19:52:01 24° NW 19:52:01 24° NW visible
26 Jan -2.7 18:58:01 10° W 19:01:06 36° NNW 19:02:49 21° NNE visible
27 Jan -3.4 18:06:23 10° WSW 18:09:37 58° NNW 18:12:54 10° NE visible
27 Jan -1.6 19:44:12 10° WNW 19:46:17 19° NNW 19:46:17 19° NNW visible
28 Jan -2.0 18:52:19 10° WNW 18:55:03 23° NNW 18:57:00 14° NNE visible
29 Jan -1.5 19:38:29 10° NW 19:40:23 16° N 19:40:23 16° N visible
30 Jan -1.7 18:46:40 10° NW 18:49:02 18° N 18:51:03 12° NNE visible
31 Jan -1.7 19:32:27 10° NW 19:34:25 17° N 19:34:25 17° N visible
01 Feb -1.7 18:40:48 10° NW 18:43:02 17° N 18:45:05 11° NE visible
01 Feb -0.8 20:17:27 10° NW 20:17:48 12° NW 20:17:48 12° NW visible
